STARLINK-1103 (44921 NORAD) Tracking and Keplerian Element Data

This shows tracking and keplerian element data for the satellite.

Feedback or suggestion? Click here.




ElementValue
Catalog44921
NameSTARLINK-1103
Epoch Orbit2738
Epoch Day187.50002315
Epoch Year2020
RAAN293.5273
Inclination52.9996
Eccentricity0.0001355
Argument of Perigee121.3054
Mean Anonmoly323.6683
Mean Motion15.0558879
Decay Rate-0.00031918
L11 44921U 20001H 20187.50002315 -.00031918 00000-0 -21808-2 0 9992
L22 44921 52.9996 293.5273 0001355 121.3054 323.6683 15.05588790 27382

Live tracking and technical data element details for STARLINK-1103 (NORAD 44921). STARLINK-1103 can be tracked NOW for your location showing map with azimuth and elevation plus other details from your city location.

Track the satellite on the map from your city or location and see movement details for azimuth, elevation, latitude, longitude, range, height, and movement on the map or in text.







IsCatalogInMostPopularTable: catalog: 44921, numindb: 37
Update: records affected: 1



GetName: 44921 STARLINK-1103

Hit Count: updated at: Mon, 06 Jul 2020 06:23:19 GMT